Location: Unspecified
(58.7730°N, 5.8460°E)
Time: 01:51:53
(UTC+02:00)

CZ-3 Stage 3 - Visible Passes

Search period start: 29 September 2016 00:00
Search period end: 09 October 2016 00:00
Orbit: 490 x 34713 km, 30.6° (Epoch: 25 September)

Date Brightness Start Highest point End Pass type
(mag) Time Alt. Az. Time Alt. Az. Time Alt. Az.
30 Sep 8.0 07:39:17 10° ESE 12:33:05 40° SE 13:37:41 10° E visible
01 Oct 9.6 07:46:09 10° E 08:47:57 13° E 09:27:25 10° E visible
01 Oct 6.7 14:02:51 10° SW 20:23:57 22° WSW 20:39:13 10° SSW visible
03 Oct 8.0 07:23:46 10° ESE 12:23:08 40° SE 13:29:08 10° E visible
04 Oct 9.6 07:28:26 10° E 08:37:58 14° E 09:20:45 10° E visible
04 Oct 6.8 13:43:53 10° SW 20:14:39 21° WSW 20:30:26 10° SSW visible
06 Oct 8.0 07:08:21 10° ESE 12:13:08 41° SE 13:20:34 10° E visible
07 Oct 9.6 07:11:06 10° E 08:27:57 14° E 09:13:43 10° E visible
07 Oct 6.8 13:26:19 10° SW 20:05:17 21° WSW 20:21:37 10° SSW visible
